www.pogodaiklimat.ru

Погода и климат >> Архив погоды >> Мексика >> Culiacan


ПОГОДА в Culiacan

  • Прогноз погоды в Culiacan
  • Монитор погоды в Culiacan
  • Климат города

АРХИВ ПОГОДЫ в Culiacan

Время (UTC), дата Ветер
(напр.,м/с)
 
Видим.   Явления Облачность Т
(С)
Тd
(С)
f
(%)
Тe
(С)
Тes
(С)
Комфортность P
(гПа)
Po
(гПа)
Тmin
(С)
Tmax
(С)
R
(мм)
R24
(мм)
S
(см)
03 19.09 В 1 16 км в посл. час морось 8/0 1500 м
[Ac und]
+24.8 +24.0 95 +34 +34 очень
душно
1014.2 1009.8 14
06 19.09 В 1 16 км 8/0 1500 м
[Ac und]
+25.2 +24.4 95 +35 +35 очень
душно
1014.8 1010.4 +24.3 +35.1
09 19.09 В 1 16 км ясно +24.4 +24.4 100 +34 +34 очень
душно
1013.1 1008.7
12 19.09 В 1 16 км ясно +24.6 +23.8 95 +33 +33 очень
душно
1013.4 1009.0 +24.3 +27.0
15 19.09 СВ 2 16 км ясно +28.3 +24.9 82 +41 +45 опасность
перегрева
1015.3 1010.8
18 19.09 СЗ 1 16 км ясно +32.3 +25.7 68 +47 +67 опасность
перегрева
1014.3 1009.9 +24.3 +32.8
21 19.09 СЗ 2 16 км 4/0 2000 м
[Ac und]
+36.2 +22.3 45 +45 +55 опасность
перегрева
1012.5 1008.1
00 20.09 З 3 16 км 4/0 2000 м
[Ac und]
+33.8 +24.4 58 +46 +47 опасность
перегрева
1011.3 1006.9 +24.6 +37.2
03 20.09 З 2 16 км 4/0 2000 м
[Ac und]
+29.4 +25.8 81 +44 +44 опасность
перегрева
1012.6 1008.3
06 20.09 З 1 16 км ясно +28.3 +26.6 91 +44 +44 опасность
перегрева
1013.4 1009.1 +28.1 +37.2
09 20.09 ЮВ 1 16 км ясно +27.6 +27.5 99 +44 +44 опасность
перегрева
1012.9 1008.5
12 20.09 штиль 0 16 км ясно +26.9 +26.9 100 +42 +42 опасность
перегрева
1012.9 1008.5 +26.7
15 20.09 В 1 16 км ясно +31.0 +25.4 72 +45 +50 опасность
перегрева
1013.4 1009.0
18 20.09 З 1 16 км ясно +33.5 +24.6 60 +47 +66 опасность
перегрева
1013.2 1008.7 +26.5 +34.4
21 20.09 СЗ 1 16 км 5/0 1500 м
[Ac und]
+35.0 +23.6 52 +46 +57 опасность
перегрева
1010.4 1006.1
00 21.09 З 1 16 км 5/0 1500 м
[Ac und]
+33.8 +23.8 56 +45 +46 опасность
перегрева
1009.4 1005.2 +27.0 +35.7
03 21.09 СЗ 1 16 км ясно +29.9 +24.8 74 +43 +43 опасность
перегрева
1012.2 1007.8
06 21.09 В 1 16 км ясно +25.3 +23.8 91 +34 +34 очень
душно
1012.0 1007.6 +25.2 +35.7
09 21.09 ЮВ 1 16 км ясно +25.2 +24.4 95 +35 +35 очень
душно
1011.4 1007.1
15 21.09 ЮВ 1 16 км 5/0 1500 м
[Ac cuf]
+26.6 +24.4 88 +37 +40 очень
душно
1012.0 1007.6
18 21.09 СЗ 1 16 км 5/0 1500 м
[Ac cuf]
+33.7 +24.0 57 +46 +58 опасность
перегрева
1011.8 1007.4 +24.1 +34.8
21 21.09 З 2 16 км 8/0 1500 м
[Ac cuf]
+35.8 +23.9 50 +47 +53 опасность
перегрева
1009.2 1004.9
00 22.09 З 2 16 км 8/0 1500 м
[Ac cuf]
+33.8 +24.1 57 +46 +46 опасность
перегрева
1007.8 1003.5 +24.1 +37.6
03 22.09 З 1 16 км 3/0 1500 м
[Ac und]
+29.0 +25.5 81 +43 +43 опасность
перегрева
1009.4 1005.1
06 22.09 н/о +25.6 1009.7 1005.4 +24.1 +37.6
12 22.09 Ю 1 16 км 8/0 1500 м
[Ac und]
+26.3 +25.6 96 +39 +39 очень
душно
1008.5 1004.1 +25.4 +37.6
15 22.09 ЮВ 1 16 км ясно +30.0 +26.0 79 +45 +49 опасность
перегрева
1009.3 1004.9
18 22.09 З 1 16 км ясно +34.0 +23.7 55 +45 +64 опасность
перегрева
1009.3 1004.9 +25.4 +34.8
00 24.09 З 1 10 км 8/0 1500 м
[Ac und]
+30.4 +25.0 73 +44 +44 опасность
перегрева
1011.6 1007.2 +26.4 +35.6
03 24.09 З 1 16 км ясно +29.5 +26.7 85 +46 +46 опасность
перегрева
1007.5 1003.2
06 24.09 З 1 16 км ясно +27.1 +26.7 98 +42 +42 опасность
перегрева
1008.5 1004.1 +22.0 +35.0
09 24.09 З 1 16 км ясно +26.9 +26.6 98 +41 +41 опасность
перегрева
1007.8 1003.5
12 24.09 штиль 0 16 км ясно +26.8 +26.8 100 +42 +42 опасность
перегрева
1007.2 1002.8 +26.6 +34.6
15 24.09 ЮВ 1 16 км ясно +28.0 +26.1 89 +42 +46 опасность
перегрева
1008.3 1003.9
18 24.09 Ю 1 16 км ясно +32.6 +22.1 54 +41 +60 опасность
перегрева
1009.6 1005.2 +26.4 +34.2
21 24.09 В 1 16 км ясно +34.0 +19.1 42 +39 +55 опасность
солнечного
удара
1007.2 1002.7
00 25.09 Ю 2 16 км 5/0 1500 м
[Ac cuf]
+33.0 +17.9 41 +37 +38 очень
душно
1006.4 1002.0 +26.4 +36.0
03 25.09 ЮВ 1 16 км 4/0 1500 м
[Ac lent]
+29.4 +21.9 64 +38 +38 очень
душно
1007.2 1002.9
06 25.09 ЮВ 1 16 км 4/0 1500 м
[Ac lent]
+28.4 +23.2 73 +38 +38 очень
душно
1008.5 1004.2 +26.4 +36.0
12 25.09 В 1 16 км 5/0 1500 м
[Ac und]
+25.6 +24.0 91 +35 +35 очень
душно
1007.7 1003.3 +24.4 +36.0
18 25.09 ЮЗ 1 16 км 8/0 1500 м
[Ac und]
+32.6 +23.9 60 +44 +52 опасность
перегрева
1010.7 1006.3 +24.6 +33.0
21 25.09 Ю 1 16 км 6/0 1500 м
[Ac und]
+34.0 +21.2 47 +41 +51 опасность
перегрева
1012.4 1008.0
00 26.09 З 1 16 км ясно +33.9 +20.2 45 +40 +42 очень
душно
1011.5 1007.2 +26.0 +34.6

 

Местоположение метеостанции Culiacan (Мексика): широта 24.80 долгота -107.40 высота над уровнем моря 39 м.

В архиве по умолчанию представлена погода в Culiacan за последнюю неделю. Архивные данные за месяц целиком и за предыдущие месяцы, начиная с января 2011 года, Вы можете получить, выбрав интересующий диапазон дат из раскрывающегося списка и нажав кнопку "Ввод!".

Внимание! Время в таблицах - всемирное. Для получения местного времени необходимо прибавить поправку, которая в Culiacan равна -7 ч.

Смотрите также архив погоды в соседних городах и на ближайших метеорологических станциях:

Погода в Tepehuanes (Мексика) (180 км)
Погода в Colonia Juan Carras-Co (Мексика) (205 км)
Погода в Choix (Мексика) (229 км)
Погода в Durango (Мексика) (296 км)
Погода в Hidalgo del Parral (Мексика) (298 км)
Погода в La Paz (Мексика) (302 км)
Погода в Ciudad Obregon (Мексика) (377 км)
Погода в Sombrerete (Мексика) (407 км)
Погода в Torreon (Мексика) (411 км)
Погода в Loreto (Мексика) (415 км)

Пояснения к столбцам:

Ветер - указаны скорость ветра в м/с - средняя за 10 мин, порывы в срок и между сроками (в фигурных скобках) и направление, откуда дует ветер: С - северный, СВ - северо-восточный, В - восточный, ЮВ - юго-восточный, Ю - южный, ЮЗ - юго-западный, З - западный, СЗ - северо-западный.
Видимость - горизонтальная дальность видимости в метрах или километрах. При видимости от 1 до 10 км при отсутствии осадков обычно наблюдается дымка, при ухудшении видимости до 1 км и менее - туман. В сухую погоду видимость может ухудшаться дымом, пылью или мглою.
Явления - указаны атмосферные явления, наблюдавшиеся в срок или в последний час перед сроком; фигурными скобками обозначены явления, наблюдавшиеся между сроками (за 1-3 часа до срока); квадратными скобками обозначены град или гололедные отложения с указанием их диаметра в мм.
Облачность - указаны через наклонную черту общая и нижняя облачность в баллах и высота нижней границы облаков в метрах; квадратными скобками обозначены формы облаков: Ci - перистые, Cs - перисто-слоистые, Cc - перисто-кучевые, Ac - высококучевые, As - высокослоистые, Sc - слоисто-кучевые, Ns - слоисто-дождевые, Cu - кучевые, Cb - кучево-дождевые. Подробнее классификацию облаков см. в Атласе облаков (PDF).
T - Температура воздуха - температура, измеренная на высоте 2 м над землей.
Td - Температура точки росы - температура, при понижении до которой содержащийся в воздухе водяной пар достигнет насыщения.
f - Относительная влажность воздуха - влажноcть воздуха, измеренная на высоте 2 м над землей.
Te - Эффективная температура - температура, которую ощущает одетый по сезону человек в тени. Характеристика душности погоды. При расчете учитывается влияние влажности воздуха и скорости ветра на теплоощущения человека.
Tes - Эффективная температура на солнце - температура, которую ощущает человек, с поправкой на солнечный нагрев. Характеристика знойности погоды. Зависит от высоты солнца над горизонтом, облачности и скорости ветра. Ночью, в пасмурную погоду, а также при ветре 12 м/с и более поправка равна нулю.
P - Атмосферное давление - приведенное к уровню моря атмосферное давление.
Po - Атмосферное давление - измеренное на уровне метеостанции атмосферное давление.
Tmin - Минимальная температура - минимум температуры воздуха на высоте 2 м над землей.
Tmax - Максимальная температура - максимум температуры воздуха на высоте 2 м над землей.
R - Количество осадков - Количество выпавших осадков за период времени, мм. При наведении курсора мыши на число - период времени, за который выпало указанное количество осадков.
R24 - Количество осадков - Количество выпавших осадков за 24 часа, мм.
S - Снежный покров - Высота снежного покрова, см. При наведении курсора мыши на число - состояние снежного покрова и степень покрытия местности в баллах.